Orbital Elements at Epoch 2459000.5 (2020-May-31.0) TDB
Reference: JPL 17 (heliocentric ecliptic J2000)
Element | Value | Uncertainty (1-sigma) | Units |
e | .2138266826833546 | 3.8504e-08 | |
a | 2.421992392548375 | 1.4446e-08 | au |
q | 1.904105793765435 | 9.8014e-08 | au |
i | 5.486036521063431 | 6.249e-06 | deg |
node | 79.62567657480049 | 4.5157e-05 | deg |
peri | 263.7801723854421 | 4.8121e-05 | deg |
M | 50.16990189413816 | 1.5239e-05 | deg |
tp | 2458808.633859336782 (2019-Nov-21.13385934) | 5.7839e-05 | TDB |
period | 1376.757937149341 3.77 | 1.2317e-05 3.372e-08 | d yr |
n | .2614838747509974 | 2.3394e-09 | deg/d |
Q | 2.939878991331315 | 1.7535e-08 | au |
|
| | Orbit Determination Parameters
Additional Information
|